Location: Poprad
(49.0500°N, 20.3000°E)
Time: 22:23:06
(UTC+02:00)

ISS - Visible Passes

Search period start: 28 May 2023 00:00
Search period end: 07 June 2023 00:00
Orbit: 412 x 419 km, 51.6° (Epoch: 28 May)

Date Brightness Start Highest point End Pass type
(mag) Time Alt. Az. Time Alt. Az. Time Alt. Az.
28 May -2.8 21:13:16 10° W 21:16:24 37° SSW 21:19:32 10° SE visible
29 May -1.3 22:02:48 10° WSW 22:04:01 12° SW 22:05:14 10° SSW visible
30 May -1.7 21:13:15 10° W 21:15:36 18° SW 21:17:57 10° S visible
